Terug naar catalogus

STARLINK-37183

ActiefCommunicatieVLEO
NORAD 68349·PAYLOAD·🇺🇸 United States

Gelanceerd Mar 22, 2026 vanaf Cape Canaveral Space Force Station

Loading…

Volgende Passages (komende 24 uur)

TLE

VersSource: CelesTrak SupGP

Epoch: Sep 14, 2026, 23:33 UTC

1 68349C 26059AE  26257.98173611 -.00078365  00000+0 -23130-2 0  2578
2 68349  53.1587 187.1936 0001290  92.0473 235.9981 15.34461818    12

Volg STARLINK-37183 in realtime met AllMySat

Download on the App Store